This demonstration page uses our WeatherBlox Daily Observations layout. Learn more.

Left ArrowRight Arrow

39.29038, -76.61219

Hourly Observations for December 27, 2020

Temp ( °F °C ) Dew Point ( °F °C ) Humidity (%) Winds ( mph kmh ) Pressure ( in mb ) Visibility ( mi km ) Precip ( " mm )
12:54 am 00:54 Mostly Clear 28 -2.2 15 -9.4 58 58 Calm 30.15 1021 10 16 0.00 0.00
1:54 am 01:54 Mostly Clear 27 -2.8 15 -9.4 61 61 WNW 5 7 30.16 1021 10 16 0.00 0.00
2:54 am 02:54 Mostly Cloudy 28 -2.2 15 -9.4 58 58 WNW 6 9 30.19 1022 10 16 0.00 0.00
3:54 am 03:54 Mostly Cloudy 28 -2.2 15 -9.4 58 58 WNW 5 7 30.20 1023 10 16 0.00 0.00
4:54 am 04:54 Partly Cloudy 27 -2.8 15 -9.4 61 61 Calm 30.22 1023 10 16 0.00 0.00
5:54 am 05:54 Mostly Clear 25 -3.9 16 -8.9 69 69 Calm 30.24 1024 10 16 0.00 0.00
6:54 am 06:54 Partly Cloudy 24 -4.4 15 -9.4 68 68 SSW 3 6 30.28 1025 10 16 0.00 0.00
7:54 am 07:54 Partly Cloudy 24 -4.4 16 -8.9 71 71 Calm 30.30 1026 10 16 0.00 0.00
8:54 am 08:54 Partly Cloudy 30 -1.1 20 -6.7 66 66 Calm 30.32 1027 10 16 0.00 0.00
9:54 am 09:54 Partly Cloudy 33 0.6 18 -7.8 54 54 Calm 30.34 1027 10 16 0.00 0.00
10:54 am 10:54 Partly Cloudy 35 1.7 17 -8.3 48 48 ESE 3 6 30.34 1027 10 16 0.00 0.00
11:54 am 11:54 Partly Cloudy 38 3.3 17 -8.3 43 43 Calm 30.32 1027 10 16 0.00 0.00
12:54 pm 12:54 Partly Cloudy 41 5 18 -7.8 39 39 E 5 7 30.30 1026 10 16 0.00 0.00
1:54 pm 13:54 Partly Cloudy 40 4.4 20 -6.7 45 45 E 8 13 30.29 1026 10 16 0.00 0.00
2:54 pm 14:54 Partly Cloudy 40 4.4 21 -6.1 47 47 ENE 9 15 30.29 1026 10 16 0.00 0.00
3:54 pm 15:54 Mostly Cloudy 38 3.3 21 -6.1 51 51 SE 8 13 30.29 1026 10 16 0.00 0.00
4:54 pm 16:54 Mostly Cloudy 36 2.2 21 -6.1 55 55 SE 6 9 30.29 1026 10 16 0.00 0.00
5:54 pm 17:54 Mostly Cloudy 35 1.7 21 -6.1 57 57 SE 5 7 30.29 1026 10 16 0.00 0.00
6:54 pm 18:54 Mostly Cloudy 35 1.7 23 -5 61 61 SSE 3 6 30.30 1026 10 16 0.00 0.00
7:54 pm 19:54 Mostly Cloudy 34 1.1 23 -5 64 64 Calm 30.30 1026 10 16 0.00 0.00
8:54 pm 20:54 Mostly Cloudy 33 0.6 23 -5 66 66 Calm 30.30 1026 10 16 0.00 0.00
9:54 pm 21:54 Cloudy 32 0 23 -5 69 69 SE 3 6 30.29 1026 10 16 0.00 0.00
10:54 pm 22:54 Cloudy 29 -1.7 23 -5 78 78 Calm 30.29 1026 10 16 0.00 0.00
11:54 pm 23:54 Cloudy 30 -1.1 24 -4.4 79 79 Calm 30.27 1025 10 16 0.00 0.00

Powered by AerisWeather